Погода в Укурее

Россия / Забайкальский край     52°20′52″N   117°01′04″E
темп.,
°C
ветер,
м/с
пор.,
м/с
влажн.,
%
обл.,
%
осадки,
мм/ч
давл.,
гПа
погр.,
м
15 апреля, чт
чт1500:00−2ссв2248100 0.0 101120
03:00−2сз1150100 0.0 101010
06:00−3сз1143100 0.0 101010
09:000ссв1232100 0.0 1010308
12:00+3ссв2322100 0.0 10081722
15:00+5зсз2321100 0.0 10072411
18:00+5сз332493 0.0 10072391
21:00+2св223561 0.0 101017
16 апреля, пт
пт1600:00−1ссв224060 0.0 101216
03:00−3ссв11435 0.0 101310
06:00−4с22451 0.0 101515
09:00+1с22320 0.0 1016355
12:00+5ссз23220 0.0 10152118
15:00+7зсз441797 0.0 10143092
18:00+7з45195 0.0 10142381
21:00+3ююз332923 0.0 101547
17 апреля, сб
сб1700:00+1ююз34375 0.0 101552
03:000ююз34395 0.0 101451
06:00−1ююз34445 0.0 101369
09:00+4юз68415 0.0 1011595
12:00+9зюз78355 0.0 10081173
15:00+14зюз792699 0.0 10051926
18:00+15зюз7102214 0.0 10032304
21:00+9юз35385 0.0 100472
18 апреля, вс
вс1800:00+7юз22445 0.0 100614
03:00+4зюз225543 0.0 100811
06:00+3з1265100 0.0 101011
09:00+6с225170 0.0 1011320
12:00+9ссв223097 0.0 10101283
15:00+12в012690 0.0 10081517
18:00+12зсз1229100 0.0 10061146
21:00+10в2236100 0.0 100621
19 апреля, пн
пн1900:00+8ссз5850100 0.1 1008339
03:00+5ссв118219 0.5 1010152
06:00+5сз68735 0.1 1013774
09:00+5сз710360 0.1 10161083
12:00+7сз810230 0.0 10171831
15:00+9сз7101864 0.0 10173017
18:00+9ссз79151 0.0 10172951
21:00+4ссв35235 0.0 1022100